Location: Newark
(5.8900°S, 42.6378°W)
Time: 05:37:30
(UTC+00:00)

Vanguard 1 Rocket - Pass Details

Date: 20 October 2019
Orbit: 651 x 4225 km, 34.3° (Epoch: 16 November)

Event Time Altitude Azimuth Distance (km) Brightness Sun altitude
Rises 23:04:33 0° 295° (WNW) 8,081 12.8 -35.0°
Reaches altitude 10° 23:10:58 10° 291° (WNW) 6,664 12.3 -36.6°
Maximum altitude 23:29:33 51° 220° (SW) 2,735 9.8 -40.9°
Enters shadow 23:35:02 32° 163° (SSE) 2,824 9.7 -42.2°
Drops below altitude 10° 23:39:17 10° 145° (SE) 3,651 - -43.2°
Sets 23:41:44 0° 138° (SE) 4,310 - -43.8°
